Location: Cahas Mountain Overlook
(37.0833°N, 80.1000°W)
Time: 15:03:56
(UTC-05:00)

A-11 Canister half - Visible Passes

Search period start: 08 February 2026 00:00
Search period end: 18 February 2026 00:00
Orbit: 1526 x 1682 km, 47.3° (Epoch: 8 February)

Date Brightness Start Highest point End Pass type
(mag) Time Alt. Az. Time Alt. Az. Time Alt. Az.
8 Feb 9.0 19:33:03 10° WSW 19:42:21 74° NNW 19:47:58 28° NE visible
8 Feb 9.8 21:39:39 10° WNW 21:46:16 40° NW 21:46:16 40° NW visible
9 Feb 9.0 19:11:10 10° WSW 19:20:30 77° NNW 19:27:30 20° NE visible
9 Feb 9.6 21:17:44 10° WNW 21:25:49 45° NNW 21:25:49 45° NNW visible
9 Feb 11.2 23:23:57 10° WNW 23:24:06 11° WNW 23:24:06 11° WNW visible
10 Feb 9.0 18:49:18 10° WSW 18:58:39 80° NNW 19:07:01 14° ENE visible
10 Feb 9.4 20:55:49 10° W 21:04:41 46° N 21:05:18 46° N visible
10 Feb 11.0 23:02:06 10° WNW 23:03:36 16° NW 23:03:36 16° NW visible
11 Feb 9.1 18:27:27 10° WSW 18:36:49 82° NNW 18:46:11 10° ENE visible
11 Feb 9.5 20:33:53 10° W 20:42:46 47° N 20:44:46 42° NNE visible
11 Feb 10.7 22:40:15 10° WNW 22:43:04 22° NW 22:43:04 22° NW visible
12 Feb 9.1 18:05:36 10° WSW 18:14:59 85° NW 18:24:20 10° ENE visible
12 Feb 9.5 20:11:58 10° W 20:20:52 47° N 20:24:14 35° NE visible
12 Feb 10.3 22:18:24 10° WNW 22:22:31 28° NW 22:22:31 28° NW visible
13 Feb 9.5 19:50:02 10° W 19:58:57 48° N 20:03:39 28° NE visible
13 Feb 10.0 21:56:31 10° WNW 22:01:56 36° NW 22:01:56 36° NW visible
14 Feb 9.5 19:28:07 10° W 19:37:03 49° NNW 19:43:04 22° NE visible
14 Feb 9.7 21:34:40 10° WNW 21:41:21 43° NNW 21:41:21 43° NNW visible
15 Feb 9.5 19:06:11 10° W 19:15:09 49° NNW 19:22:28 16° ENE visible
15 Feb 9.5 21:12:47 10° WNW 21:20:45 48° N 21:20:45 48° N visible
15 Feb 11.1 23:18:06 10° WNW 23:19:02 14° WNW 23:19:02 14° WNW visible
16 Feb 9.5 18:44:15 10° W 18:53:16 50° NNW 19:01:52 11° ENE visible
16 Feb 9.3 20:50:55 10° WNW 20:59:51 48° NNE 21:00:09 48° NNE visible
16 Feb 10.8 22:56:15 10° WNW 22:58:26 19° WNW 22:58:26 19° WNW visible
17 Feb 9.5 18:22:19 10° W 18:31:22 51° NNW 18:40:24 10° ENE visible
17 Feb 9.3 20:29:02 10° WNW 20:37:57 48° N 20:39:34 44° NE visible
17 Feb 10.4 22:34:26 10° WNW 22:37:51 26° NW 22:37:51 26° NW visible
